GW6416 Weather Reports


time (UTC)temp
C
wind
direction
speed
KPH
gust
KPH
rain 1hr
cm
rain 24hr
cm
rain mn
cm
humidity
%
barometer
mb
20260507061008 13 352 1.6 11.3 0.10 0.36 0.10 90 1009.6
20260507060504 13 38 3.2 19.3 0.10 0.36 0.10 89 1009.7
20260507060022 13 340 6.4 19.3 0.08 0.33 0.08 88 1009.3
20260507055508 14 40 6.4 16.1 0.08 0.33 0.08 87 1009.3
20260507055008 14 285 3.2 16.1 0.05 0.30 0.05 86 1009.4
20260507054526 15 333 4.8 14.5 0.03 0.28 0.03 84 1009.4
20260507054009 15 52 6.4 14.5 0.03 0.28 0.03 83 1009.3
20260507053509 15 79 3.2 8.0 0.00 0.25 0.00 83 1009.7
20260507053028 15 310 3.2 8.0 0.00 0.25 0.00 82 1010.3
20260507052511 15 360 3.2 8.0 0.00 0.25 0.00 82 1010.0
20260507052012 15 38 3.2 16.1 0.00 0.25 0.00 82 1009.7
20260507051518 15 334 1.6 20.9 0.00 0.25 0.00 81 1009.9
20260507051007 15 19 3.2 24.1 0.00 0.25 0.00 79 1009.6
20260507050507 16 12 4.8 24.1 0.00 0.25 0.00 77 1009.4
20260507050025 16 328 4.8 14.5 0.00 0.25 0.00 77 1009.4
20260507045512 16 343 6.4 14.5 0.00 0.25 0.00 79 1009.3
20260507045010 16 26 4.8 16.1 0.00 0.25 0.00 80 1009.4
20260507044524 16 325 3.2 16.1 0.00 0.25 0.00 80 1009.0
20260507044009 16 344 4.8 9.7 0.00 0.25 0.00 79 1009.0
20260507043510 17 338 3.2 9.7 0.00 0.25 0.00 80 1009.0
20260507043028 17 24 3.2 9.7 0.00 0.25 0.00 80 1008.9
20260507042510 17 298 3.2 8.0 0.00 0.25 0.00 81 1008.7
20260507042008 17 335 1.6 8.0 0.00 0.25 0.00 83 1008.6
20260507041542 17 34 1.6 6.4 0.00 0.25 0.00 85 1008.6
20260507041012 17 342 1.6 6.4 0.00 0.25 0.00 85 1008.8
20260507040510 17 320 3.2 12.9 0.00 0.25 0.00 84 1008.9
20260507040020 17 327 3.2 12.9 0.00 0.25 0.00 84 1008.9
20260507035508 17 323 1.6 12.9 0.00 0.25 0.25 83 1008.9
20260507035010 18 5 3.2 12.9 0.00 0.25 0.25 82 1009.0
20260507034526 18 19 4.8 12.9 0.00 0.25 0.25 82 1009.1
20260507034007 18 290 3.2 12.9 0.00 0.25 0.25 83 1009.0
20260507033509 18 294 1.6 8.0 0.00 0.25 0.25 85 1008.9
20260507033031 18 346 3.2 8.0 0.00 0.25 0.25 85 1008.6
20260507032506 18 11 0.0 3.2 0.00 0.25 0.25 86 1008.7
20260507032013 18 22 0.0 4.8 0.00 0.25 0.25 86 1008.7
20260507031526 18 5 0.0 11.3 0.00 0.25 0.25 86 1008.6
20260507031009 17 342 0.0 11.3 0.00 0.25 0.25 88 1008.6
20260507030511 17 317 1.6 4.8 0.00 0.25 0.25 89 1008.8
20260507030030 17 17 0.0 0.0 0.00 0.25 0.25 89 1008.7
20260507025510 17 153 0.0 0.0 0.00 0.25 0.25 89 1008.3
20260507025004 17 153 0.0 0.0 0.00 0.25 0.25 88 1008.1
20260507024521 17 153 0.0 0.0 0.00 0.25 0.25 87 1008.0
20260507024014 17 153 0.0 0.0 0.00 0.25 0.25 87 1008.1
20260507023508 17 153 0.0 3.2 0.00 0.25 0.25 87 1008.1
20260507023003 17 153 0.0 3.2 0.00 0.25 0.25 87 1008.0
20260507022503 17 199 0.0 1.6 0.00 0.25 0.25 86 1008.0
20260507022004 17 199 0.0 1.6 0.00 0.25 0.25 86 1008.0
20260507021506 18 169 0.0 3.2 0.00 0.25 0.25 84 1008.0
20260507021003 18 169 0.0 3.2 0.00 0.25 0.25 84 1008.0
20260507020504 18 221 0.0 3.2 0.00 0.25 0.25 83 1008.1
20260507020007 18 162 0.0 3.2 0.00 0.25 0.25 83 1008.2
20260507015504 18 197 1.6 4.8 0.00 0.25 0.25 83 1008.4
20260507015004 18 230 1.6 4.8 0.00 0.25 0.25 82 1008.5
20260507014516 18 173 1.6 8.0 0.00 0.25 0.25 82 1008.7
20260507014003 18 171 3.2 8.0 0.00 0.25 0.25 82 1008.8
20260507013503 18 182 3.2 6.4 0.00 0.25 0.25 82 1008.8
20260507013015 18 190 1.6 8.0 0.00 0.25 0.25 82 1008.8
20260507012504 18 197 3.2 8.0 0.00 0.25 0.25 82 1008.8
20260507012003 18 166 3.2 6.4 0.00 0.25 0.25 82 1008.8
20260507011513 18 221 1.6 4.8 0.00 0.25 0.25 82 1008.6
20260507011003 18 173 0.0 3.2 0.00 0.25 0.25 82 1008.3
20260507010503 18 196 1.6 4.8 0.00 0.25 0.25 82 1008.1
20260507010007 18 194 1.6 4.8 0.00 0.25 0.25 82 1008.5
20260507005502 18 234 0.0 3.2 0.00 0.25 0.25 82 1008.3
20260507005002 18 195 1.6 6.4 0.00 0.25 0.25 82 1008.2
20260507004506 18 186 1.6 6.4 0.00 0.25 0.25 82 1008.2
20260507004003 18 188 1.6 4.8 0.00 0.25 0.25 82 1008.2
20260507003503 18 193 1.6 4.8 0.00 0.25 0.25 82 1008.3
20260507003008 18 195 1.6 4.8 0.00 0.25 0.25 82 1008.2
20260507002502 18 186 1.6 6.4 0.00 0.25 0.25 82 1008.2
20260507002006 18 185 1.6 6.4 0.00 0.25 0.25 81 1008.5
20260507001505 18 174 3.2 9.7 0.00 0.25 0.25 81 1008.5
20260507001003 18 207 3.2 9.7 0.00 0.25 0.25 81 1008.3
20260507000506 18 183 4.8 9.7 0.00 0.25 0.25 82 1008.5
20260507000020 18 202 1.6 8.0 0.00 0.25 0.25 82 1008.1
20260506235504 18 219 3.2 6.4 0.00 0.25 0.25 82 1008.0
20260506235005 18 202 1.6 8.0 0.00 0.25 0.25 82 1007.9
20260506234508 18 223 3.2 8.0 0.00 0.25 0.25 81 1008.0
20260506234003 18 217 3.2 8.0 0.00 0.25 0.25 82 1008.0
20260506233503 18 188 3.2 6.4 0.00 0.25 0.25 81 1007.9
20260506233009 18 179 3.2 6.4 0.00 0.25 0.25 81 1007.9
20260506232502 18 234 1.6 12.9 0.00 0.25 0.25 81 1007.8
20260506232002 19 175 3.2 12.9 0.00 0.25 0.25 81 1007.7
20260506231508 19 194 3.2 11.3 0.00 0.25 0.25 81 1007.8
20260506231003 19 133 3.2 9.7 0.00 0.25 0.25 81 1007.9
20260506230504 19 221 1.6 9.7 0.00 0.25 0.25 80 1007.8
20260506230009 19 188 3.2 8.0 0.00 0.25 0.25 80 1007.8
20260506225504 19 219 1.6 11.3 0.00 0.25 0.25 80 1007.9
20260506225004 19 171 4.8 11.3 0.00 0.25 0.25 79 1007.9
20260506224509 19 200 3.2 11.3 0.00 0.25 0.25 80 1008.0
20260506224004 19 186 4.8 11.3 0.00 0.25 0.25 80 1007.9
20260506223503 20 209 4.8 11.3 0.00 0.25 0.25 79 1007.9
20260506223008 20 194 4.8 11.3 0.00 0.25 0.25 80 1007.9
20260506222503 20 153 3.2 9.7 0.00 0.25 0.25 80 1007.9
20260506222002 20 179 3.2 9.7 0.00 0.25 0.25 79 1007.9
20260506221510 20 182 3.2 9.7 0.00 0.25 0.25 78 1007.8
20260506221002 20 239 4.8 9.7 0.00 0.25 0.25 78 1007.8
20260506220503 20 221 4.8 12.9 0.00 0.25 0.25 78 1007.7
20260506220013 20 211 4.8 16.1 0.00 0.25 0.25 78 1007.8
20260506215502 20 229 6.4 16.1 0.00 0.25 0.25 77 1007.8
20260506215002 20 190 4.8 14.5 0.00 0.25 0.25 77 1007.8
20260506214512 20 219 4.8 16.1 0.00 0.25 0.25 77 1007.6
20260506214002 20 199 4.8 14.5 0.00 0.25 0.25 77 1007.7
20260506213506 20 222 6.4 14.5 0.00 0.25 0.25 78 1007.6
20260506213014 20 246 8.0 16.1 0.00 0.25 0.25 77 1007.5
20260506212506 20 236 6.4 16.1 0.00 0.25 0.25 77 1007.5
20260506212004 20 232 4.8 12.9 0.00 0.25 0.25 76 1007.5
20260506211511 20 151 8.0 14.5 0.00 0.25 0.25 76 1007.4
20260506211005 20 223 4.8 14.5 0.00 0.25 0.25 78 1007.5
20260506210501 20 211 8.0 14.5 0.00 0.25 0.25 78 1007.6
20260506210009 20 204 6.4 25.7 0.00 0.25 0.25 78 1007.4
20260506205507 20 218 9.7 25.7 0.00 0.25 0.25 77 1007.4
20260506205003 20 200 9.7 17.7 0.00 0.25 0.25 77 1007.5
20260506204511 20 169 8.0 20.9 0.00 0.25 0.25 78 1007.4
20260506204003 20 265 9.7 22.5 0.00 0.25 0.25 77 1007.3
20260506203502 20 213 11.3 24.1 0.00 0.25 0.25 77 1007.4
20260506203012 20 199 8.0 24.1 0.00 0.25 0.25 77 1007.4
20260506202503 20 206 9.7 22.5 0.00 0.25 0.25 77 1007.3
20260506202006 20 184 12.9 22.5 0.00 0.25 0.25 76 1007.3
20260506201514 20 205 8.0 24.1 0.00 0.25 0.25 76 1007.3
20260506201008 20 221 11.3 25.7 0.00 0.25 0.25 75 1007.2
20260506200503 20 202 9.7 25.7 0.00 0.25 0.25 75 1007.3
20260506200014 20 222 11.3 29.0 0.00 0.25 0.25 75 1007.4
20260506195506 20 297 12.9 30.6 0.00 0.25 0.25 76 1007.3
20260506195003 20 171 9.7 30.6 0.00 0.25 0.25 76 1007.3
20260506194515 20 254 8.0 24.1 0.00 0.25 0.25 76 1007.3
20260506194003 20 194 9.7 24.1 0.00 0.25 0.25 76 1007.5
20260506193503 20 201 9.7 27.4 0.00 0.25 0.25 77 1007.3
20260506193012 20 204 8.0 27.4 0.00 0.25 0.25 79 1007.5
20260506192504 20 197 11.3 25.7 0.00 0.25 0.25 78 1007.4
20260506192007 20 209 12.9 25.7 0.00 0.25 0.25 78 1007.6
20260506191517 20 204 9.7 25.7 0.00 0.25 0.25 80 1007.8
20260506191004 19 196 9.7 19.3 0.00 0.25 0.25 79 1007.9
20260506190504 19 160 9.7 19.3 0.00 0.25 0.25 80 1008.0
20260506190013 19 215 11.3 25.7 0.00 0.25 0.25 80 1008.1
20260506185508 18 227 11.3 25.7 0.00 0.25 0.25 80 1008.0
20260506185006 18 188 8.0 22.5 0.00 0.25 0.25 81 1008.0
20260506184519 18 226 9.7 24.1 0.00 0.25 0.25 80 1008.1
20260506184007 18 157 9.7 24.1 0.00 0.25 0.25 81 1008.1
20260506183507 18 174 12.9 24.1 0.00 0.25 0.25 80 1008.2
20260506183016 18 248 11.3 25.7 0.00 0.25 0.25 81 1008.2
20260506182507 18 190 9.7 25.7 0.00 0.25 0.25 80 1008.4
20260506182008 18 197 9.7 25.7 0.00 0.25 0.25 80 1008.3
20260506181516 18 178 8.0 25.7 0.00 0.25 0.25 81 1008.3
20260506181012 18 155 8.0 25.7 0.00 0.25 0.25 80 1008.3
20260506180506 18 188 14.5 29.0 0.00 0.25 0.25 80 1008.3
20260506180028 18 180 9.7 29.0 0.00 0.25 0.25 82 1008.4
20260506175504 18 177 11.3 33.8 0.00 0.25 0.25 81 1008.4
20260506175008 18 176 11.3 33.8 0.00 0.25 0.25 81 1008.4
20260506174517 18 214 17.7 27.4 0.00 0.25 0.25 81 1008.5
20260506174006 18 188 14.5 25.7 0.00 0.25 0.25 81 1008.5
20260506173505 18 294 11.3 22.5 0.00 0.25 0.25 82 1008.6
20260506173019 18 196 11.3 24.1 0.00 0.25 0.25 82 1008.4
20260506172504 17 147 12.9 32.2 0.00 0.25 0.25 82 1008.4
20260506172012 17 250 9.7 32.2 0.00 0.25 0.25 82 1008.6
20260506171534 17 173 11.3 25.7 0.00 0.25 0.25 81 1008.5
20260506171008 18 204 12.9 24.1 0.00 0.25 0.25 81 1008.6
20260506170504 18 212 11.3 27.4 0.03 0.25 0.25 82 1008.5
20260506170018 18 211 14.5 27.4 0.03 0.25 0.25 83 1008.8
20260506165512 18 178 8.0 24.1 0.03 0.25 0.25 82 1008.8
20260506165008 18 167 11.3 27.4 0.03 0.25 0.25 82 1008.8
20260506164521 18 156 9.7 24.1 0.03 0.25 0.25 84 1008.6
20260506164008 17 138 8.0 24.1 0.03 0.25 0.25 85 1008.5
20260506163504 17 134 9.7 27.4 0.03 0.25 0.25 85 1008.3
20260506163022 17 213 12.9 27.4 0.03 0.25 0.25 86 1008.5
20260506162508 17 182 6.4 22.5 0.10 0.25 0.25 87 1008.8
20260506162014 17 204 9.7 22.5 0.13 0.25 0.25 87 1008.9
20260506161536 17 204 8.0 16.1 0.15 0.25 0.25 87 1009.0
20260506161007 17 255 8.0 24.1 0.18 0.25 0.25 87 1009.1
20260506160508 17 200 6.4 24.1 0.18 0.23 0.23 87 1009.1
20260506160020 17 173 8.0 19.3 0.20 0.23 0.23 88 1008.9
20260506155511 17 198 8.0 19.3 0.20 0.23 0.23 89 1008.8
20260506155007 16 160 4.8 16.1 0.20 0.23 0.23 88 1009.0
20260506154520 16 217 8.0 17.7 0.20 0.23 0.23 88 1009.3
20260506154008 16 184 8.0 20.9 0.20 0.23 0.23 87 1009.6
20260506153508 16 196 9.7 22.5 0.23 0.23 0.23 87 1009.8
20260506153017 16 173 8.0 22.5 0.23 0.23 0.23 86 1009.7
20260506152510 16 192 9.7 17.7 0.15 0.15 0.15 85 1009.9
20260506152007 17 228 9.7 16.1 0.13 0.13 0.13 85 1010.0
20260506151519 17 198 4.8 16.1 0.10 0.10 0.10 84 1009.8
20260506151008 17 188 6.4 17.7 0.08 0.08 0.08 84 1009.7
20260506150507 17 215 6.4 17.7 0.05 0.05 0.05 81 1009.8
20260506150025 17 192 8.0 16.1 0.03 0.03 0.03 81 1009.7
20260506145505 17 217 9.7 16.1 0.03 0.03 0.03 81 1009.7
20260506145008 17 205 6.4 20.9 0.03 0.03 0.03 81 1009.8
20260506144521 17 161 8.0 20.9 0.03 0.03 0.03 80 1009.9
20260506144009 17 205 6.4 24.1 0.03 0.03 0.03 79 1009.8
20260506143509 17 207 6.4 24.1 0.00 0.00 0.00 78 1009.8
20260506143022 17 194 9.7 16.1 0.00 0.00 0.00 76 1009.8
20260506142508 18 256 6.4 24.1 0.00 0.00 0.00 75 1009.8
20260506142010 18 199 8.0 24.1 0.00 0.00 0.00 74 1009.8
20260506141519 18 216 4.8 22.5 0.00 0.00 0.00 73 1009.9
20260506141008 18 212 9.7 25.7 0.00 0.00 0.00 71 1010.1
20260506140507 18 161 11.3 30.6 0.00 0.00 0.00 70 1010.1
20260506140021 18 241 12.9 30.6 0.00 0.00 0.00 69 1010.1
20260506135506 18 200 9.7 25.7 0.00 0.00 0.00 69 1010.0
20260506135011 18 207 12.9 25.7 0.00 0.00 0.00 70 1009.9
20260506134546 18 184 12.9 20.9 0.00 0.00 0.00 69 1009.9
20260506134010 18 194 8.0 20.9 0.00 0.00 0.00 69 1009.9
20260506133508 18 278 9.7 24.1 0.00 0.00 0.00 68 1009.7
20260506133022 19 202 12.9 27.4 0.00 0.00 0.00 67 1009.8
20260506132510 19 178 12.9 27.4 0.00 0.00 0.00 66 1009.9
20260506132008 20 171 11.3 22.5 0.00 0.00 0.00 66 1009.6
20260506131527 19 211 9.7 24.1 0.00 0.00 0.00 67 1009.6
20260506131007 19 227 9.7 32.2 0.00 0.00 0.00 67 1009.4
20260506130510 19 155 9.7 32.2 0.00 0.00 0.00 67 1009.6
20260506130025 19 184 11.3 32.2 0.00 0.00 0.00 67 1009.5
20260506125509 18 202 9.7 32.2 0.00 0.00 0.00 68 1009.6
20260506125008 18 211 12.9 35.4 0.00 0.00 0.00 68 1009.7
20260506124523 18 203 14.5 35.4 0.00 0.00 0.00 68 1009.7
20260506124009 18 148 11.3 27.4 0.00 0.00 0.00 67 1009.8
20260506123509 18 225 11.3 35.4 0.00 0.00 0.00 68 1009.9
20260506123025 18 202 12.9 35.4 0.00 0.00 0.00 68 1009.8
20260506122508 18 205 11.3 32.2 0.00 0.00 0.00 67 1009.8
20260506122008 18 214 12.9 32.2 0.00 0.00 0.00 67 1009.8
20260506121523 19 229 8.0 27.4 0.00 0.00 0.00 68 1009.7
20260506121009 19 248 12.9 27.4 0.00 0.00 0.00 67 1009.7
20260506120507 18 198 8.0 30.6 0.00 0.00 0.00 68 1009.8
20260506120022 18 184 9.7 30.6 0.00 0.00 0.00 68 1009.7
20260506115509 18 209 12.9 32.2 0.00 0.00 0.00 68 1009.6
20260506115009 18 232 8.0 37.0 0.00 0.00 0.00 69 1009.5
20260506114533 18 180 14.5 37.0 0.00 0.00 0.00 69 1009.7
20260506114009 18 176 9.7 27.4 0.00 0.00 0.00 69 1009.7
20260506113509 18 188 9.7 27.4 0.00 0.00 0.00 70 1009.6
20260506113018 18 172 14.5 30.6 0.00 0.00 0.00 70 1009.4
20260506112509 18 190 11.3 30.6 0.00 0.00 0.00 70 1009.4
20260506112004 18 221 6.4 20.9 0.00 0.00 0.00 71 1009.3
20260506111519 18 198 9.7 29.0 0.00 0.00 0.00 71 1009.4
20260506111006 18 213 12.9 29.0 0.00 0.00 0.00 71 1009.3
20260506110504 18 173 11.3 24.1 0.00 0.00 0.00 72 1009.2
20260506110019 18 227 9.7 24.1 0.00 0.00 0.00 72 1009.2
20260506105504 18 256 9.7 29.0 0.00 0.00 0.00 72 1009.3
20260506105003 18 208 9.7 29.0 0.00 0.00 0.00 72 1009.3
20260506104509 18 241 11.3 24.1 0.00 0.00 0.00 72 1009.2
20260506104005 18 181 11.3 24.1 0.00 0.00 0.00 72 1009.2
20260506103508 18 188 12.9 24.1 0.00 0.00 0.00 73 1009.2
20260506103022 18 167 9.7 25.7 0.00 0.00 0.00 73 1009.2
20260506102508 18 203 9.7 25.7 0.00 0.00 0.00 73 1009.3
20260506102010 18 177 9.7 29.0 0.00 0.00 0.00 73 1009.2
20260506101518 18 193 12.9 29.0 0.00 0.00 0.00 72 1009.3
20260506101006 18 190 11.3 25.7 0.00 0.00 0.00 73 1009.3
20260506100505 18 189 8.0 32.2 0.00 0.00 0.00 72 1009.4
20260506100029 18 194 11.3 32.2 0.00 0.00 0.00 72 1009.4
20260506095507 18 223 11.3 22.5 0.00 0.00 0.00 73 1009.4
20260506095006 18 210 9.7 20.9 0.00 0.00 0.00 72 1009.3
20260506094514 18 171 11.3 25.7 0.00 0.00 0.00 73 1009.3
20260506094003 18 180 14.5 25.7 0.00 0.00 0.00 73 1009.4
20260506093504 18 172 9.7 24.1 0.00 0.00 0.00 73 1009.6
20260506093013 18 190 11.3 29.0 0.00 0.00 0.00 73 1009.4
20260506092507 18 164 14.5 29.0 0.00 0.00 0.00 73 1009.4
20260506092009 18 191 9.7 27.4 0.00 0.00 0.00 73 1009.4
20260506091520 18 214 9.7 27.4 0.00 0.00 0.00 73 1009.4
20260506091007 18 199 9.7 19.3 0.00 0.00 0.00 73 1009.5
20260506090507 18 212 9.7 20.9 0.00 0.00 0.00 72 1009.5
20260506090023 18 196 9.7 29.0 0.00 0.00 0.00 72 1009.5
20260506085506 18 180 12.9 29.0 0.00 0.00 0.00 72 1009.5
20260506085007 18 201 8.0 24.1 0.00 0.00 0.00 72 1009.5
20260506084525 18 183 14.5 24.1 0.00 0.00 0.00 72 1009.5
20260506084008 18 200 9.7 25.7 0.00 0.00 0.00 72 1009.5
20260506083507 18 158 8.0 25.7 0.00 0.00 0.00 72 1009.4
20260506083013 18 248 11.3 19.3 0.00 0.00 0.00 73 1009.3
20260506082506 18 229 8.0 19.3 0.00 0.00 0.00 72 1009.3
20260506082003 18 185 9.7 22.5 0.00 0.00 0.00 72 1009.4
20260506081522 18 182 8.0 22.5 0.00 0.00 0.00 72 1009.5
20260506081009 18 188 11.3 20.9 0.00 0.00 0.00 71 1009.5
20260506080508 18 185 12.9 24.1 0.00 0.00 0.00 71 1009.5
20260506073515 19 179 11.3 32.2 0.00 0.00 0.00 70 1009.7
20260506073024 19 195 14.5 32.2 0.00 0.00 0.00 70 1009.7
20260506072505 19 192 9.7 25.7 0.00 0.00 0.00 69 1009.7
20260506072007 19 186 12.9 24.1 0.00 0.00 0.00 69 1009.7
20260506071514 19 210 9.7 25.7 0.00 0.00 0.00 69 1009.7
20260506071008 19 211 9.7 25.7 0.00 0.00 0.00 69 1009.7
20260506070504 19 167 8.0 20.9 0.00 0.00 0.00 69 1009.7
20260506062507 20 211 12.9 30.6 0.00 0.00 0.00 67 1009.8
20260506062012 20 196 12.9 30.6 0.00 0.00 0.00 67 1009.7
20260506061533 20 201 9.7 32.2 0.00 0.00 0.00 67 1009.8